File timestamp: Mon Aug 15 03:00:00 2016, Internal temp: 20.2178955078125
1471230001, -0.00121485406998545, 0.0413079895079136, 0.0254963897168636, 32803, 33289, 23431, 61.1641006469727
1471230002, 0.00786247011274099, 0.0410472191870213, 0.0257953312247992, 32810, 33299, 23428, NaN
1471230003, 0.0239103138446808, 0.0409275963902473, 0.0254173967987299, 32817, 33292, 23429, NaN
1471230004, 0.047338679432869, 0.0421585068106651, 0.0252282712608576, 32801, 33294, 23447, NaN
1471230005, 0.078043632209301, 0.0421717502176762, 0.0255230013281107, 32803, 33299, 23436, NaN
1471230006, 0.115399062633514, 0.0430073514580727, 0.0260146111249924, 32805, 33300, 23434, NaN
1471230007, 0.156542539596558, 0.042825423181057, 0.0269603133201599, 32806, 33281, 23420, NaN
1471230008, 0.175841525197029, 0.0429419875144958, 0.0272198058664799, 32800, 33303, 23434, NaN
1471230009.008, 0.125497102737427, 0.0427033230662346, 0.0275067165493965, 32807, 33303, 23412, NaN
1471230010.008, 0.0821105092763901, 0.0431133843958378, 0.0279528126120567, 32811, 33286, 23432, NaN
1471230011.008, 0.0451638512313366, 0.0436748079955578, 0.0287420097738504, 32802, 33302, 23436, NaN
1471230012.008, 0.0141450380906463, 0.0443776100873947, 0.02887555770576, 32820, 33295, 23436, NaN
1471230013.008, -0.0114500783383846, 0.044571291655302, 0.0280229672789574, 32803, 33293, 23432, NaN
1471230014.008, -0.0321153290569782, 0.0441333912312984, 0.0280189514160156, 32811, 33289, 23422, NaN
1471230015.008, -0.0483318231999874, 0.0446987859904766, 0.0287754312157631, 32804, 33290, 23437, NaN
1471230016.008, -0.0605655461549759, 0.0451622232794762, 0.0287622157484293, 32799, 33309, 23446, NaN
1471230017.008, -0.0692651122808456, 0.0456714034080505, 0.0285645462572575, 32816, 33299, 23422, NaN
1471230018.008, -0.0748596861958504, 0.0462935045361519, 0.027947723865509, 32808, 33297, 23434, NaN
1471230019.008, -0.0777571573853493, 0.0463750250637531, 0.028021452948451, 32811, 33290, 23430, NaN
1471230020.008, -0.0783425569534302, 0.0462301708757877, 0.0281452480703592, 32835, 33293, 23426, NaN
1471230021.016, -0.0769767761230469, 0.0459328480064869, 0.0283215548843145, 32800, 33293, 23430, NaN
1471230022.016, -0.0739956125617027, 0.0460375472903252, 0.0287581793963909, 32797, 33280, 23440, NaN
1471230022.016, -0.0697090923786163, 0.0453811064362526, 0.0290071070194244, 32794, 33302, 23444, NaN
1471230023.022, -0.0644011199474335, 0.0458550192415714, 0.0291720777750015, 32801, 33300, 23428, NaN
1471230024.022, -0.0583293735980988, 0.0461368449032307, 0.0298657342791557, 32804, 33290, 23424, NaN
1471230025.022, -0.0517255403101444, 0.0459454022347927, 0.029825983569026, 32798, 33293, 23430, NaN
1471230026.022, -0.0447957441210747, 0.0454664975404739, 0.029755262658, 32804, 33298, 23435, NaN
1471230027.022, -0.0377212353050709, 0.0459831915795803, 0.0298450514674187, 32801, 33294, 23432, NaN
1471230028.022, -0.0306592769920826, 0.0458176843822002, 0.0298438239842653, 32801, 33288, 23437, NaN
1471230029.022, -0.0237441994249821, 0.0458326265215874, 0.0291974171996117, 32809, 33279, 23426, NaN
1471230030.022, -0.0170886162668467, 0.0461355820298195, 0.0291415248066187, 32816, 33299, 23416, NaN
1471230031.022, -0.0107847535982728, 0.0452435910701752, 0.0294993668794632, 32814, 33288, 23426, NaN
1471230031.022, -0.00490587018430233, 0.0452829264104366, 0.0290991589426994, 32799, 33300, 23437, NaN
1471230032.03, 0.000492246472276747, 0.0453804135322571, 0.0285629983991385, 32800, 33292, 23446, NaN
1471230033.03, 0.00536974845454097, 0.0460591800510883, 0.0278785806149244, 32815, 33293, 23424, NaN
1471230034.03, 0.00970117095857859, 0.0456045418977737, 0.0277070663869381, 32793, 33291, 23445, NaN
1471230035.03, 0.013473879545927, 0.0457282178103924, 0.0275588780641556, 32806, 33297, 23446, NaN
1471230035.03, 0.0166865400969982, 0.0455490499734879, 0.0280198641121387, 32796, 33294, 23421, NaN
1471230036.034, 0.0193326305598021, 0.0453423783183098, 0.02843570522964, 32803, 33288, 23442, NaN
1471230037.034, 0.0186840277165174, 0.0454161427915096, 0.0278898496180773, 32809, 33292, 23430, NaN
1471230038.034, 0.0144537510350347, 0.0452720709145069, 0.0277544036507607, 32804, 33303, 23429, NaN
1471230039.034, 0.00777148082852364, 0.0455134809017181, 0.0274490714073181, 32808, 33296, 23429, NaN
1471230040.034, 0.000354134710505605, 0.045774582773447, 0.0266433861106634, 32803, 33288, 23430, NaN
1471230041.042, -0.00700025493279099, 0.0455484017729759, 0.0264698937535286, 32802, 33283, 23436, NaN
1471230042.042, -0.0128369526937604, 0.0460119880735874, 0.0263825915753841, 32816, 33307, 23425, NaN
1471230043.042, -0.0176760628819466, 0.0457491800189018, 0.0264130067080259, 32802, 33290, 23431, NaN
1471230044.042, -0.0201929360628128, 0.0458815470337868, 0.0268491376191378, 32814, 33283, 23415, NaN
1471230044.042, -0.0216712690889835, 0.0459129624068737, 0.0269937962293625, 32792, 33287, 23437, NaN
1471230045.048, -0.022115433588624, 0.0459695756435394, 0.0265233758836985, 32805, 33283, 23440, NaN
1471230046.048, -0.0206900723278522, 0.0455128252506256, 0.0260162651538849, 32812, 33286, 23430, NaN
1471230047.048, -0.0177838169038296, 0.0458423942327499, 0.0258471742272377, 32803, 33302, 23446, NaN
1471230048.048, -0.013808180578053, 0.0473190471529961, 0.0255045183002949, 32822, 33289, 23445, NaN
1471230048.048, -0.00892641395330429, 0.047966193407774, 0.0255467444658279, 32823, 33298, 23429, NaN
1471230049.05, -0.00243355054408312, 0.048402763903141, 0.0254977066069841, 32798, 33299, 23435, NaN
1471230050.05, 0.00322093302384019, 0.0483089946210384, 0.0253160987049341, 32808, 33299, 23417, NaN
1471230051.058, 0.00925342552363873, 0.0483410730957985, 0.0260735359042883, 32805, 33285, 23442, NaN
1471230052.058, 0.0154825234785676, 0.0483655966818333, 0.02652483060956, 32817, 33295, 23420, NaN
1471230052.058, 0.0229279845952988, 0.0480682067573071, 0.0264308825135231, 32795, 33305, 23430, NaN
1471230053.066, 0.0297945011407137, 0.0489568784832954, 0.0259370692074299, 32807, 33287, 23428, NaN
1471230054.066, 0.0358384177088737, 0.0493682436645031, 0.0261575616896152, 32816, 33299, 23431, NaN
1471230055.066, 0.0411048568785191, 0.049763385206461, 0.0269742701202631, 32801, 33296, 23427, 61.0691947937012
1471230056.066, 0.0457826629281044, 0.0501814782619476, 0.0270525421947241, 32812, 33308, 23438, NaN
1471230057.066, 0.0500073432922363, 0.0495777763426304, 0.0270640291273594, 32795, 33288, 23434, NaN
1471230058.066, 0.0535750687122345, 0.0496602579951286, 0.0271389242261648, 32807, 33299, 23429, NaN
1471230059.066, 0.0556357428431511, 0.0492913238704205, 0.0270078461617231, 32793, 33309, 23446, NaN
1471230060.066, 0.0565997026860714, 0.0491018034517765, 0.0269672889262438, 32814, 33299, 23426, NaN
1471230061.066, 0.057739295065403, 0.0486150793731213, 0.0265457984060049, 32821, 33299, 23432, NaN
1471230062.076, 0.058216642588377, 0.0482501424849033, 0.0269729699939489, 32800, 33296, 23443, NaN
1471230063.076, 0.0569748915731907, 0.0483917109668255, 0.027449045330286, 32814, 33295, 23437, NaN
1471230064.076, 0.0538697987794876, 0.0480445399880409, 0.0274304915219545, 32805, 33300, 23433, NaN
1471230065.076, 0.0507406331598759, 0.0484148859977722, 0.0264848619699478, 32803, 33306, 23430, NaN
1471230066.076, 0.0482389591634274, 0.0482993982732296, 0.0255184806883335, 32811, 33288, 23445, NaN
1471230067.076, 0.0451284646987915, 0.0480527952313423, 0.0248221196234226, 32798, 33285, 23439, NaN
1471230068.076, 0.0416934639215469, 0.0484955348074436, 0.0243582334369421, 32799, 33288, 23448, NaN
1471230069.076, 0.0386510267853737, 0.0476329475641251, 0.0244295187294483, 32790, 33287, 23430, NaN
1471230070.076, 0.0354154333472252, 0.047269195318222, 0.0243354663252831, 32807, 33299, 23429, NaN
1471230071.076, 0.0312208253890276, 0.0477742739021778, 0.024179469794035, 32799, 33300, 23448, NaN
1471230072.076, 0.0255762413144112, 0.0473717227578163, 0.0251525565981865, 32806, 33294, 23434, NaN
1471230073.076, 0.0193138383328915, 0.047228142619133, 0.0256008971482515, 32809, 33292, 23420, NaN
1471230074.086, 0.0121443951502442, 0.047751922160387, 0.0253242086619139, 32796, 33314, 23436, NaN
1471230075.086, 0.0058419294655323, 0.0467597804963589, 0.0262130666524172, 32807, 33302, 23426, NaN
1471230075.086, -0.00107374275103211, 0.0472738817334175, 0.0265975203365088, 32802, 33289, 23437, NaN
1471230076.092, -0.00842816941440105, 0.0460418239235878, 0.0263618715107441, 32811, 33307, 23428, NaN
1471230077.092, -0.0147882429882884, 0.0467683896422386, 0.0269027948379517, 32807, 33294, 23439, NaN
1471230078.092, -0.0207356978207827, 0.046544473618269, 0.0270592495799065, 32812, 33306, 23421, NaN
1471230079.092, -0.0262501314282417, 0.0467171780765057, 0.0259005110710859, 32807, 33298, 23424, NaN
1471230080.092, -0.0322897993028164, 0.0465492494404316, 0.0271395463496447, 32812, 33290, 23432, NaN
1471230081.092, -0.038049578666687, 0.0454319790005684, 0.0274782013148069, 32804, 33299, 23423, NaN
1471230082.092, -0.0435571260750294, 0.045039564371109, 0.0262277349829674, 32824, 33299, 23429, NaN
1471230083.092, -0.0481632761657238, 0.0444481000304222, 0.0262444615364075, 32810, 33288, 23430, NaN
1471230084.092, -0.0517328158020973, 0.0445467978715897, 0.0261015109717846, 32795, 33295, 23429, NaN
1471230084.092, -0.0548192374408245, 0.0447429530322552, 0.0256697367876768, 32801, 33298, 23439, NaN
1471230085.1, -0.056890107691288, 0.0433107614517212, 0.0251756869256496, 32802, 33281, 23437, NaN
1471230086.1, -0.0575235113501549, 0.0440327152609825, 0.025795204564929, 32812, 33296, 23425, NaN
1471230087.1, -0.0567283369600773, 0.0442585907876492, 0.0268530901521444, 32811, 33292, 23449, NaN
1471230088.1, -0.05509277805686, 0.0435786135494709, 0.0268297400325537, 32801, 33295, 23429, NaN
1471230088.1, -0.0528481565415859, 0.043826051056385, 0.0271530859172344, 32805, 33300, 23438, NaN
1471230089.104, -0.0485366508364677, 0.0433046258985996, 0.0275611579418182, 32805, 33288, 23430, NaN
1471230090.104, -0.0416649170219898, 0.0436749570071697, 0.0276354029774666, 32800, 33296, 23434, NaN
1471230091.104, -0.033865038305521, 0.0433755032718182, 0.0285012926906347, 32815, 33294, 23444, NaN
1471230092.104, -0.0255572311580181, 0.0432587489485741, 0.0277175381779671, 32801, 33299, 23432, NaN
1471230093.104, -0.0178372450172901, 0.0440084040164948, 0.029261814430356, 32812, 33293, 23435, NaN
1471230094.104, -0.011221120133996, 0.0442091971635818, 0.0291959848254919, 32809, 33293, 23427, NaN
1471230095.114, -0.00530930329114199, 0.0440870597958565, 0.03033197671175, 32806, 33301, 23422, NaN
1471230096.114, 0.000773166306316853, 0.0434321574866772, 0.0304928924888372, 32797, 33293, 23431, NaN
1471230097.114, 0.0061298250220716, 0.0436360836029053, 0.0307655241340399, 32802, 33286, 23446, NaN
1471230097.114, 0.0114212892949581, 0.043318260461092, 0.030326209962368, 32814, 33290, 23428, NaN
1471230098.12, 0.0159386545419693, 0.0439614057540894, 0.0306894704699516, 32823, 33292, 23417, NaN
1471230099.12, 0.0195671282708645, 0.0435942709445953, 0.0307724010199308, 32808, 33291, 23426, NaN
1471230100.12, 0.021711828187108, 0.0435084141790867, 0.0307566542178392, 32809, 33304, 23429, NaN
1471230101.12, 0.0231397822499275, 0.0433257892727852, 0.031388845294714, 32805, 33291, 23438, NaN
1471230101.12, 0.0244451127946377, 0.0435048639774323, 0.0314598865807056, 32803, 33301, 23430, NaN
1471230102.122, 0.0261912178248167, 0.043406430631876, 0.0311350710690022, 32800, 33297, 23435, NaN
1471230103.122, 0.0273623093962669, 0.0431471765041351, 0.0316828303039074, 32820, 33291, 23420, NaN
1471230104.132, 0.0271885879337788, 0.0436298064887524, 0.0319705009460449, 32805, 33287, 23428, NaN
1471230105.132, 0.0270903985947371, 0.0438659116625786, 0.0317691303789616, 32811, 33302, 23429, NaN
1471230105.132, 0.0252406988292933, 0.0445767641067505, 0.0309303663671017, 32816, 33298, 23426, NaN
1471230106.14, 0.0228364486247301, 0.0445034578442574, 0.0309328027069569, 32808, 33291, 23438, NaN
1471230107.14, 0.0198055673390627, 0.044096477329731, 0.03144671022892, 32813, 33300, 23423, NaN
1471230108.14, 0.0169960670173168, 0.0435264445841312, 0.0316337272524834, 32803, 33298, 23439, NaN
1471230109.14, 0.0145914014428854, 0.0432831011712551, 0.0312576703727245, 32813, 33295, 23436, 58.5735778808594
1471230109.14, 0.0124331163242459, 0.0430629327893257, 0.0311872139573097, 32816, 33294, 23439, NaN
1471230110.144, 0.0107266921550035, 0.0430252179503441, 0.031730443239212, 32806, 33283, 23435, NaN
1471230111.144, 0.00858717225492001, 0.0431414023041725, 0.0319182984530926, 32830, 33295, 23418, NaN
1471230112.144, 0.00648315204307437, 0.0423916876316071, 0.0322016589343548, 32801, 33298, 23431, NaN
1471230113.144, 0.00422873115167022, 0.0408552326261997, 0.032783567905426, 32797, 33299, 23431, NaN
1471230114.154, 0.0022107872646302, 0.0408805347979069, 0.0330339185893536, 32810, 33291, 23432, NaN
1471230115.154, 0.000299432140309364, 0.0406688153743744, 0.0325360745191574, 32798, 33296, 23438, NaN
1471230116.154, -0.0017132016364485, 0.0413123965263367, 0.0330471321940422, 32801, 33299, 23431, NaN
1471230117.154, -0.00346940453164279, 0.0419484861195087, 0.0334322489798069, 32789, 33298, 23446, NaN
1471230118.154, -0.00479834759607911, 0.0420613884925842, 0.0340688824653625, 32822, 33296, 23433, NaN
1471230119.154, -0.00668826512992382, 0.0424877814948559, 0.0347196534276009, 32808, 33290, 23445, NaN
1471230120.154, -0.00818860251456499, 0.0441833585500717, 0.0345140472054482, 32805, 33294, 23428, NaN
1471230121.154, -0.00923751387745142, 0.0436758659780025, 0.0347177647054195, 32805, 33291, 23431, NaN
1471230122.154, -0.0107926465570927, 0.0447004176676273, 0.034274335950613, 32809, 33285, 23439, NaN
1471230123.154, -0.0117955431342125, 0.0450603924691677, 0.0343775227665901, 32810, 33295, 23428, NaN
1471230124.154, -0.0120002795010805, 0.0448968932032585, 0.0345912575721741, 32792, 33294, 23435, NaN
1471230125.154, -0.0125108063220978, 0.0449456237256527, 0.0349067412316799, 32800, 33292, 23441, NaN
1471230126.162, -0.0130693856626749, 0.0456129685044289, 0.0342782288789749, 32814, 33294, 23442, NaN
1471230127.162, -0.0132706686854362, 0.0452918149530888, 0.0335817225277424, 32808, 33288, 23438, NaN
1471230127.162, -0.0132120922207832, 0.0456437692046165, 0.0324366353452206, 32806, 33291, 23421, NaN
1471230128.17, -0.0124574899673462, 0.0446361117064953, 0.0321006774902344, 32810, 33299, 23427, NaN
1471230129.17, -0.0117595158517361, 0.0447393991053104, 0.0321995317935944, 32795, 33308, 23435, NaN
1471230130.17, -0.0109729049727321, 0.0446054525673389, 0.0323192998766899, 32810, 33293, 23438, NaN
1471230131.17, -0.00984679348766804, 0.0441608689725399, 0.032130341976881, 32812, 33298, 23433, NaN
1471230132.17, -0.00869295932352543, 0.0442588180303574, 0.0315797105431557, 32793, 33304, 23423, NaN
1471230133.17, -0.00666454806923866, 0.0442044287919998, 0.0309185348451138, 32801, 33285, 23439, NaN
1471230134.17, -0.005420858040452, 0.0439383871853352, 0.030882490798831, 32809, 33292, 23430, NaN
1471230135.17, -0.00405192980542779, 0.0440399572253227, 0.0307712499052286, 32821, 33295, 23437, NaN
1471230136.17, -0.00220177532173693, 0.0443441867828369, 0.0309651140123606, 32810, 33300, 23443, NaN
1471230136.17, -0.00158094672951847, 0.0446964651346207, 0.0308808293193579, 32812, 33304, 23427, NaN
1471230137.178, -0.000855020130984485, 0.0445096231997013, 0.0307753719389439, 32813, 33292, 23427, NaN
1471230138.178, 0.001026502228342, 0.0449304059147835, 0.0303027722984552, 32809, 33286, 23428, NaN
1471230139.178, 0.00226644473150373, 0.0448239147663116, 0.0301002357155085, 32801, 33283, 23432, NaN
1471230140.178, 0.00380754098296165, 0.0452321842312813, 0.0294461008161306, 32815, 33295, 23436, NaN
1471230140.178, 0.00496033160015941, 0.0453138425946236, 0.030168691650033, 32808, 33297, 23441, NaN
1471230141.182, 0.00527747813612223, 0.0451019480824471, 0.030804380774498, 32804, 33294, 23444, NaN
1471230142.182, 0.00514384731650352, 0.0451256781816483, 0.0315485261380672, 32815, 33288, 23428, NaN
1471230143.182, 0.00516297994181514, 0.0453283600509167, 0.0311841126531363, 32818, 33293, 23434, NaN
1471230144.182, 0.00532668735831976, 0.0458003133535385, 0.0307168606668711, 32812, 33300, 23432, NaN
1471230145.182, 0.00543766049668193, 0.0456361100077629, 0.0306611564010382, 32818, 33289, 23427, NaN
1471230146.182, 0.00559592945501208, 0.0461356453597546, 0.0310975220054388, 32799, 33301, 23440, NaN
1471230147.192, 0.00535333994776011, 0.045943908393383, 0.03147242218256, 32822, 33294, 23421, NaN
1471230148.192, 0.00527124619111419, 0.0461020283401012, 0.0319770611822605, 32818, 33303, 23434, NaN
1471230149.192, 0.00382957421243191, 0.0464339442551136, 0.0321774296462536, 32810, 33301, 23438, NaN
1471230149.192, 0.00281272479332983, 0.0476070195436478, 0.0325809381902218, 32806, 33297, 23440, NaN
1471230150.198, 0.00283572124317288, 0.0474730581045151, 0.032388012856245, 32811, 33296, 23430, NaN
1471230151.198, 0.0030591213144362, 0.0480165630578995, 0.0329654216766357, 32810, 33288, 23430, NaN
1471230152.198, 0.00300173182040453, 0.0479079857468605, 0.032765369862318, 32808, 33297, 23440, NaN
1471230153.198, 0.00297742523252964, 0.0484415106475353, 0.0328037664294243, 32803, 33293, 23440, NaN
1471230154.198, 0.00382004259154201, 0.048499908298254, 0.0331597663462162, 32810, 33292, 23436, NaN
1471230155.198, 0.00359741458669305, 0.0490810200572014, 0.0333888530731201, 32813, 33307, 23428, NaN
1471230156.198, 0.00324360281229019, 0.0493108481168747, 0.0332102887332439, 32798, 33300, 23437, NaN
1471230157.206, 0.00301279500126839, 0.0492654144763947, 0.0331894680857658, 32797, 33292, 23443, NaN
1471230158.206, 0.00323292030952871, 0.0487794503569603, 0.0327593199908733, 32811, 33292, 23440, NaN
1471230158.206, 0.00836604367941618, 0.0485562235116959, 0.0323926620185375, 32802, 33288, 23441, NaN
1471230159.214, 0.0232295021414757, 0.0486288666725159, 0.0322684608399868, 32813, 33296, 23436, NaN
1471230160.214, 0.0486750155687332, 0.0484279058873653, 0.0320268720388412, 32801, 33304, 23423, NaN
1471230161.214, 0.0847188159823418, 0.0479359850287437, 0.032446276396513, 32803, 33300, 23435, NaN
1471230162.214, 0.126479998230934, 0.0478106737136841, 0.0327081754803658, 32798, 33295, 23443, NaN
1471230162.218, 0.173115581274033, 0.0487061142921448, 0.0329691879451275, 32811, 33294, 23437, 58.7447700500488
1471230163.218, 0.121919214725494, 0.0484706275165081, 0.0321891084313393, 32807, 33288, 23429, NaN
1471230164.218, 0.0766018405556679, 0.0479175262153149, 0.032065212726593, 32822, 33290, 23420, NaN
1471230165.218, 0.0381178483366966, 0.0476787313818932, 0.0324552468955517, 32816, 33295, 23416, NaN
1471230166.218, 0.00592156825587153, 0.0480957441031933, 0.033073615282774, 32800, 33304, 23429, NaN
1471230167.218, -0.0205249171704054, 0.0472133941948414, 0.0331787653267384, 32804, 33298, 23433, NaN
1471230168.226, -0.0417490340769291, 0.0471086949110031, 0.0329736545681953, 32807, 33287, 23440, NaN
1471230169.226, -0.0582649298012257, 0.0477718748152256, 0.0331224091351032, 32814, 33293, 23434, NaN
1471230170.226, -0.070570781826973, 0.0483188815414906, 0.0327034778892994, 32817, 33282, 23436, NaN
1471230171.226, -0.0791462585330009, 0.0485902465879917, 0.032847236841917, 32823, 33302, 23427, NaN
1471230172.226, -0.0844501852989197, 0.0479740090668201, 0.0331263095140457, 32813, 33296, 23424, NaN
1471230173.226, -0.0869185402989388, 0.0478122569620609, 0.0323040187358856, 32810, 33293, 23439, NaN
1471230174.226, -0.0869626700878143, 0.047807339578867, 0.0323454439640045, 32798, 33284, 23428, NaN
1471230175.226, -0.0849679410457611, 0.0479420088231564, 0.0329364463686943, 32818, 33304, 23434, NaN
1471230176.226, -0.081292636692524, 0.0476250164210796, 0.0333740822970867, 32819, 33301, 23425, NaN
1471230177.226, -0.0762672647833824, 0.0475373491644859, 0.0328172594308853, 32808, 33290, 23428, NaN
1471230178.226, -0.0701941251754761, 0.0475166700780392, 0.0327672809362411, 32810, 33300, 23426, NaN
1471230179.234, -0.0633472949266434, 0.0476053804159164, 0.0318220108747482, 32823, 33301, 23415, NaN
1471230180.234, -0.0559728145599365, 0.0481847003102303, 0.0321925394237041, 32803, 33283, 23446, NaN
1471230180.234, -0.048289205878973, 0.0479471869766712, 0.0317314080893993, 32807, 33297, 23426, NaN
1471230181.242, -0.0404882319271564, 0.047471284866333, 0.0319900028407574, 32814, 33292, 23431, NaN
1471230182.242, -0.0327358618378639, 0.0481088869273663, 0.0316987857222557, 32796, 33294, 23440, NaN
1471230183.242, -0.0251734293997288, 0.0477126948535442, 0.0320806577801704, 32816, 33292, 23440, NaN
1471230184.242, -0.0179189667105675, 0.0465632118284702, 0.0323750637471676, 32805, 33281, 23421, NaN
1471230185.242, -0.0110686514526606, 0.0478091053664684, 0.0319811254739761, 32800, 33295, 23441, NaN
1471230186.242, -0.00469835894182324, 0.0478948689997196, 0.0322448685765266, 32812, 33275, 23443, NaN
1471230187.242, 0.00113471888471395, 0.0478168837726116, 0.0323194041848183, 32811, 33291, 23440, NaN
1471230188.242, 0.00639040302485228, 0.0483628660440445, 0.0315582528710365, 32790, 33290, 23443, NaN
1471230189.242, 0.0110438447445631, 0.0485424920916557, 0.0314545594155788, 32807, 33288, 23440, NaN
1471230189.242, 0.0150838438421488, 0.0476944036781788, 0.031723253428936, 32803, 33293, 23436, NaN
1471230190.25, 0.0185111872851849, 0.0483567118644714, 0.0319771319627762, 32798, 33296, 23435, NaN
1471230191.25, 0.0213370453566313, 0.0493782535195351, 0.0323666743934155, 32820, 33302, 23410, NaN
1471230192.25, 0.0235814061015844, 0.0491634644567966, 0.0329981856048107, 32801, 33285, 23433, NaN
1471230193.25, 0.0244508590549231, 0.0499290488660336, 0.0329766795039177, 32815, 33281, 23434, NaN
1471230194.25, 0.0202511120587587, 0.0496389865875244, 0.0334139801561832, 32795, 33288, 23438, NaN
1471230195.25, 0.0128598120063543, 0.0499753169715405, 0.0331195406615734, 32808, 33295, 23443, NaN
1471230196.25, 0.00390186836011708, 0.0501162745058537, 0.0328735858201981, 32811, 33298, 23434, NaN
1471230197.25, -0.00548206875100732, 0.0507769510149956, 0.032248929142952, 32800, 33300, 23433, NaN
1471230198.25, -0.0141041399911046, 0.0508654043078423, 0.0328750461339951, 32807, 33289, 23441, NaN
1471230199.25, -0.0219442099332809, 0.0514269731938839, 0.0326758585870266, 32803, 33294, 23440, NaN
1471230200.25, -0.028037017211318, 0.0515866279602051, 0.0330832600593567, 32801, 33287, 23440, NaN
1471230201.26, -0.0319035053253174, 0.0517878234386444, 0.0329124331474304, 32802, 33306, 23438, NaN
1471230202.26, -0.0336385034024715, 0.0520980097353458, 0.0326665155589581, 32812, 33289, 23435, NaN
1471230203.26, -0.0334802940487862, 0.0528082884848118, 0.0322724580764771, 32811, 33292, 23437, NaN
1471230203.26, -0.0311293918639421, 0.0521645434200764, 0.0326105877757072, 32805, 33304, 23437, NaN
1471230204.266, -0.0272015538066626, 0.0525306276977062, 0.0332815200090408, 32822, 33303, 23425, NaN
1471230205.266, -0.0215767007321119, 0.0528593696653843, 0.0331193022429943, 32810, 33291, 23428, NaN
1471230206.266, -0.0144920647144318, 0.0524680912494659, 0.0332076884806156, 32814, 33286, 23423, NaN
1471230207.266, -0.00636364705860615, 0.0525108128786087, 0.0325080789625645, 32802, 33291, 23444, NaN
1471230208.266, 0.00281337788328528, 0.0526536032557487, 0.0316927433013916, 32807, 33286, 23438, NaN
1471230209.266, 0.0128008807078004, 0.0528708659112453, 0.0322167351841927, 32811, 33303, 23434, NaN
1471230210.266, 0.0220692455768585, 0.0530436411499977, 0.0322271063923836, 32788, 33311, 23443, NaN
1471230211.266, 0.0309844836592674, 0.0525551103055477, 0.0320470221340656, 32805, 33284, 23422, NaN
1471230212.274, 0.0393308661878109, 0.052957359701395, 0.0312622971832752, 32811, 33310, 23421, NaN
1471230212.274, 0.046656608581543, 0.0525409318506718, 0.0305648557841778, 32815, 33297, 23428, NaN
1471230213.282, 0.0530157275497913, 0.0523420758545399, 0.0303581841289997, 32801, 33288, 23445, NaN